When you browse on this site, cookies collect data to enhance your experience and personalize the content and advertising you see.
Visit our Privacy Policy to learn more. By continuing to use the site, you agree to this use of cookies and data.
  • en France
  • Liste des pays
  • À 7 jours
  • Température de l'eau
  • Carte satellitaire
  • Carte météo
  • Widgets météo
  • user-avatar
    Se connecter

    Météo par heure à Lovetch

    Ce jour, 27 Mai, Lundi

    Heure Température Précipitation Vent Pression Humidité
    00:00 +17°C° 0 mm 2 m/s 737 mmHg 77%
    01:00 +17°C° 0 mm 2 m/s 736 mmHg 77%
    02:00 +17°C° 0 mm 2 m/s 736 mmHg 77%
    03:00 +16°C° 0 mm 2 m/s 736 mmHg 77%
    04:00 +16°C° 0 mm 1 m/s 736 mmHg 78%
    05:00 +16°C° 0 mm 1 m/s 736 mmHg 78%
    06:00 +19°C° 0 mm 1 m/s 736 mmHg 74%
    07:00 +21°C° 0 mm 1 m/s 736 mmHg 70%
    08:00 +23°C° 0 mm 1 m/s 737 mmHg 65%
    09:00 +24°C° 0 mm 1 m/s 736 mmHg 60%
    10:00 +26°C° 0 mm 2 m/s 736 mmHg 55%
    11:00 +27°C° 0 mm 2 m/s 736 mmHg 50%
    12:00 +28°C° 0 mm 2 m/s 736 mmHg 49%
    13:00 +29°C° 0 mm 3 m/s 736 mmHg 48%
    14:00 +29°C° 0 mm 3 m/s 735 mmHg 47%
    15:00 +29°C° 0 mm 3 m/s 735 mmHg 52%
    16:00 +28°C° 0 mm 3 m/s 735 mmHg 56%
    17:00 +28°C° 0 mm 2 m/s 735 mmHg 61%
    18:00 +26°C° 0 mm 3 m/s 735 mmHg 62%
    19:00 +25°C° 0 mm 3 m/s 734 mmHg 63%
    20:00 +22°C° 0 mm 3 m/s 734 mmHg 64%
    21:00 +21°C° 0 mm 3 m/s 734 mmHg 64%
    22:00 +21°C° 0 mm 3 m/s 734 mmHg 63%
    23:00 +20°C° 0 mm 3 m/s 735 mmHg 62%

    Demain, 28 Mai, Mardi

    Heure Température Précipitation Vent Pression Humidité
    00:00 +19°C° 0.3 mm 3 m/s 734 mmHg 69%
    01:00 +18°C° 0.3 mm 3 m/s 734 mmHg 75%
    02:00 +17°C° 0.3 mm 2 m/s 734 mmHg 82%
    03:00 +17°C° 0 mm 2 m/s 734 mmHg 81%
    04:00 +17°C° 0 mm 2 m/s 733 mmHg 81%
    05:00 +16°C° 0 mm 2 m/s 733 mmHg 80%
    06:00 +18°C° 0 mm 2 m/s 733 mmHg 75%
    07:00 +21°C° 0 mm 1 m/s 733 mmHg 70%
    08:00 +23°C° 0 mm 1 m/s 733 mmHg 65%
    09:00 +25°C° 0 mm 2 m/s 733 mmHg 58%
    10:00 +27°C° 0 mm 2 m/s 733 mmHg 51%
    11:00 +29°C° 0 mm 2 m/s 733 mmHg 43%
    12:00 +29°C° 0 mm 3 m/s 732 mmHg 43%
    13:00 +30°C° 0 mm 3 m/s 732 mmHg 42%
    14:00 +30°C° 0 mm 4 m/s 731 mmHg 42%
    15:00 +30°C° 0 mm 3 m/s 731 mmHg 45%
    16:00 +29°C° 0 mm 3 m/s 730 mmHg 49%
    17:00 +29°C° 0 mm 3 m/s 730 mmHg 53%
    18:00 +27°C° 0 mm 3 m/s 730 mmHg 56%
    19:00 +25°C° 0 mm 3 m/s 730 mmHg 60%
    20:00 +22°C° 0 mm 3 m/s 730 mmHg 63%
    21:00 +21°C° 0 mm 3 m/s 730 mmHg 62%
    22:00 +21°C° 0 mm 3 m/s 731 mmHg 60%
    23:00 +20°C° 0 mm 4 m/s 731 mmHg 58%

    Après-demain, 29 Mai, Mercredi

    Heure Température Précipitation Vent Pression Humidité
    00:00 +20°C° 0 mm 3 m/s 731 mmHg 64%
    01:00 +19°C° 0 mm 2 m/s 731 mmHg 69%
    02:00 +18°C° 0 mm 2 m/s 731 mmHg 75%
    03:00 +19°C° 0 mm 1 m/s 732 mmHg 75%
    04:00 +18°C° 0 mm 1 m/s 732 mmHg 75%
    05:00 +18°C° 0 mm 1 m/s 732 mmHg 75%
    06:00 +20°C° 0 mm 1 m/s 732 mmHg 71%
    07:00 +22°C° 0 mm 1 m/s 732 mmHg 68%
    08:00 +21°C° 0 mm 0 m/s 733 mmHg 65%
    09:00 +24°C° 0.1 mm 1 m/s 733 mmHg 62%
    10:00 +26°C° 0.1 mm 1 m/s 733 mmHg 59%
    11:00 +27°C° 0.1 mm 1 m/s 733 mmHg 56%
    12:00 +27°C° 0.5 mm 1 m/s 733 mmHg 57%
    13:00 +27°C° 0.5 mm 1 m/s 733 mmHg 57%
    14:00 +27°C° 0.5 mm 1 m/s 732 mmHg 57%
    15:00 +27°C° 0.3 mm 1 m/s 732 mmHg 57%
    16:00 +25°C° 0.3 mm 0 m/s 732 mmHg 57%
    17:00 +25°C° 0.3 mm 0 m/s 732 mmHg 58%
    18:00 +25°C° 0.1 mm 1 m/s 732 mmHg 63%
    19:00 +24°C° 0.1 mm 1 m/s 733 mmHg 68%
    20:00 +22°C° 0.1 mm 1 m/s 733 mmHg 74%
    21:00 +21°C° 0.5 mm 1 m/s 733 mmHg 77%
    22:00 +20°C° 0.5 mm 1 m/s 734 mmHg 80%
    23:00 +19°C° 0.5 mm 1 m/s 734 mmHg 83%

    30 Mai, Jeudi

    Heure Température Précipitation Vent Pression Humidité
    00:00 +19°C° 0.1 mm 1 m/s 734 mmHg 86%
    01:00 +18°C° 0.1 mm 1 m/s 734 mmHg 88%
    02:00 +18°C° 0.1 mm 1 m/s 734 mmHg 90%
    03:00 +18°C° 0 mm 1 m/s 734 mmHg 90%
    04:00 +16°C° 0 mm 1 m/s 734 mmHg 89%
    05:00 +16°C° 0 mm 1 m/s 734 mmHg 89%
    06:00 +19°C° 0 mm 1 m/s 734 mmHg 85%
    07:00 +19°C° 0 mm 2 m/s 735 mmHg 80%
    08:00 +20°C° 0 mm 2 m/s 735 mmHg 76%
    09:00 +20°C° 0 mm 2 m/s 735 mmHg 74%
    10:00 +20°C° 0 mm 3 m/s 735 mmHg 72%
    11:00 +21°C° 0 mm 3 m/s 735 mmHg 69%
    12:00 +22°C° 0.2 mm 3 m/s 735 mmHg 67%
    13:00 +24°C° 0.2 mm 3 m/s 734 mmHg 64%
    14:00 +25°C° 0.2 mm 3 m/s 734 mmHg 62%
    15:00 +24°C° 0.2 mm 3 m/s 734 mmHg 68%
    16:00 +22°C° 0.2 mm 3 m/s 734 mmHg 73%
    17:00 +21°C° 0.2 mm 3 m/s 734 mmHg 79%
    18:00 +19°C° 0.8 mm 3 m/s 734 mmHg 84%
    19:00 +18°C° 0.8 mm 2 m/s 734 mmHg 89%
    20:00 +17°C° 0.8 mm 2 m/s 734 mmHg 94%
    21:00 +17°C° 1.3 mm 3 m/s 734 mmHg 94%
    22:00 +17°C° 1.3 mm 3 m/s 734 mmHg 95%
    23:00 +16°C° 1.3 mm 3 m/s 735 mmHg 96%

    31 Mai, Vendredi

    Heure Température Précipitation Vent Pression Humidité
    00:00 +16°C° 0.1 mm 3 m/s 734 mmHg 95%
    01:00 +14°C° 0.1 mm 3 m/s 734 mmHg 94%
    02:00 +14°C° 0.1 mm 3 m/s 734 mmHg 93%
    03:00 +14°C° 0 mm 3 m/s 734 mmHg 92%
    04:00 +13°C° 0 mm 3 m/s 734 mmHg 91%
    05:00 +13°C° 0 mm 3 m/s 734 mmHg 91%
    06:00 +14°C° 0 mm 3 m/s 734 mmHg 87%
    07:00 +14°C° 0 mm 3 m/s 734 mmHg 83%
    08:00 +15°C° 0 mm 4 m/s 734 mmHg 79%
    09:00 +17°C° 0 mm 4 m/s 734 mmHg 76%
    10:00 +18°C° 0 mm 4 m/s 734 mmHg 72%
    11:00 +20°C° 0 mm 4 m/s 734 mmHg 68%
    12:00 +20°C° 0 mm 4 m/s 733 mmHg 68%
    13:00 +20°C° 0 mm 4 m/s 733 mmHg 68%
    14:00 +21°C° 0 mm 4 m/s 733 mmHg 68%
    15:00 +20°C° 0.1 mm 4 m/s 733 mmHg 70%
    16:00 +20°C° 0.1 mm 3 m/s 733 mmHg 73%
    17:00 +20°C° 0.1 mm 3 m/s 733 mmHg 76%
    18:00 +19°C° 0.3 mm 2 m/s 733 mmHg 79%
    19:00 +17°C° 0.3 mm 2 m/s 733 mmHg 82%
    20:00 +16°C° 0.3 mm 2 m/s 733 mmHg 85%
    21:00 +16°C° 0.2 mm 2 m/s 733 mmHg 86%
    22:00 +16°C° 0.2 mm 2 m/s 733 mmHg 86%
    23:00 +15°C° 0.2 mm 2 m/s 733 mmHg 86%

    1 Juin, Samedi

    Heure Température Précipitation Vent Pression Humidité
    00:00 +15°C° 0.1 mm 2 m/s 733 mmHg 86%
    01:00 +15°C° 0.1 mm 2 m/s 733 mmHg 86%
    02:00 +14°C° 0.1 mm 3 m/s 732 mmHg 86%
    03:00 +14°C° 0.1 mm 3 m/s 733 mmHg 87%
    04:00 +14°C° 0.1 mm 4 m/s 733 mmHg 87%
    05:00 +14°C° 0.1 mm 4 m/s 733 mmHg 88%
    06:00 +13°C° 0.2 mm 5 m/s 733 mmHg 89%
    07:00 +13°C° 0.2 mm 6 m/s 733 mmHg 89%
    08:00 +12°C° 0.2 mm 7 m/s 733 mmHg 89%
    09:00 +13°C° 0.2 mm 6 m/s 733 mmHg 89%
    10:00 +12°C° 0.2 mm 5 m/s 734 mmHg 88%
    11:00 +12°C° 0.2 mm 4 m/s 734 mmHg 88%
    12:00 +13°C° 0 mm 5 m/s 734 mmHg 84%
    13:00 +14°C° 0 mm 6 m/s 734 mmHg 80%
    14:00 +14°C° 0 mm 6 m/s 734 mmHg 77%
    15:00 +14°C° 0 mm 6 m/s 734 mmHg 77%
    16:00 +14°C° 0 mm 5 m/s 734 mmHg 77%
    17:00 +14°C° 0 mm 5 m/s 734 mmHg 77%
    18:00 +13°C° 0 mm 5 m/s 735 mmHg 77%
    19:00 +12°C° 0 mm 5 m/s 735 mmHg 78%
    20:00 +12°C° 0 mm 4 m/s 735 mmHg 78%
    21:00 +11°C° 0 mm 4 m/s 736 mmHg 78%
    22:00 +11°C° 0 mm 4 m/s 736 mmHg 79%
    23:00 +11°C° 0 mm 3 m/s 737 mmHg 79%
    Voir plus